Weather Roundup
Issued by NWS Corpus Christi, TX

Home | Current Version | Previous Version | Text Only | Print | Product List | Glossary On
Versions: 1 2 3 4 5 6 7 8 9 10 11 12 13 14 15 16 17 18 19 20 21 22 23 24 25 26 27 28 29 30 31 32 33 34 35 36 37 38 39 40 41 42 43 44 45 46 47 48 49 50
000
ASUS44 KCRP 010810
HRRCRP

SOUTH TEXAS REGIONAL WEATHER ROUNDUP
NATIONAL WEATHER SERVICE CORPUS CHRISTI TX
300 AM CDT FRI AUG 01 2014


TXZ229>244-010900-
...CORPUS CHRISTI AREA OBSERVATIONS...

CITY           SKY/WX    TMP DP  RH WIND       PRES   REMARKS
CORPUS CHRISTI MOCLDY    80  76  87 S9        29.92F
NAS CORPUS CHR PTCLDY    82  78  88 S15       29.91F HX  91
ROCKPORT       MOCLDY    81  77  88 S6        29.92S
KINGSVILLE NAS CLEAR     80  77  90 S8        29.92S
ALICE          PTCLDY    80  75  84 S6        29.92S
FALFURRIAS     CLEAR     70  70 100 SE7       29.91F
$$

...VICTORIA AREA OBSERVATIONS...

CITY           SKY/WX    TMP DP  RH WIND       PRES   REMARKS
VICTORIA       CLOUDY    82  78  88 SW3       29.95F HX  91
BEEVILLE       FAIR      80  76  88 S5        29.94S
PLEASANTON     MOCLDY    81  70  68 E5        29.96S
SAN ANTONIO    CLOUDY    81  67  62 NE12      30.00S
$$

...LAREDO AREA OBSERVATIONS...

CITY           SKY/WX    TMP DP  RH WIND       PRES   REMARKS
LAREDO         CLEAR     84  71  65 SE10      29.94R
COTULLA        CLEAR     83  71  67 E8        29.93R
DEL RIO        PTCLDY    82  67  60 NE9       29.96R
MCALLEN        PTCLDY    82  76  81 S8        29.91F
HEBBRONVILLE   CLEAR     80  72  77 SE8       29.93S
$$

...OTHER TEXAS OBSERVATIONS...

CITY           SKY/WX    TMP DP  RH WIND       PRES   REMARKS
BROWNSVILLE    CLEAR     80  76  87 S9        29.92F
HOUSTON        CLOUDY    75  74  96 SW8       29.94F
COL. STATION   MOCLDY    73  69  87 NW7       29.97F
AUSTIN         CLOUDY    77  65  66 N10       29.99F
WACO           CLOUDY    72  65  78 N6        30.00F
FORT WORTH     CLOUDY    71  66  84 N10       30.01F
WICHITA FALLS  PTCLDY    69  67  93 CALM      30.07S
LUBBOCK        CLOUDY    65  58  78 SE6       30.17F
EL PASO        CLOUDY    72  63  73 S3        30.16R
$$

...MARINE OBSERVATIONS...

STATION/POSITION TIME  SKY/WX   TEMP    WIND        PRES    VSBY  WAVE   SWELL
                                AIR SEA DIR/SP/G                  HT/PER HT/PER
                 (UTC)          (F)     (DEG/KT/KT) (MB)    (MI)  (FT/S) (FT/S)
PORT ARANSAS     0800            80 83  180/ 13/ 15 1013.5F
BUOY 90 E PORT A 0800            84 83  180/ 14/ 16 1013.8F         3/ 4
BUOY 45 SE BAFFI 0800            83 85  180/ 17/ 19 1012.7F         3/ 5
BUOY 200 E PT IS 0800            85 86  160/ 10/ 12 1013.8F         1/ 5
BUOY 15 E GALVES 0800            84 86  210/ 14/ 16 1013.4
$$



USA.gov is the U.S. government's official web portal to all federal, state and local government web resources and services.